Le Mars, IA

11:08 PM CDT on October 23, 2017 (GMT -0500)
Le Mars Municipal

Weather History for KLRJ - December, 2013

Change the Weather History Date:

Monday, December 9, 2013

  Actual Average Record
Temperature  
Mean Temperature 6 °F -  
Max Temperature 17 °F 33 °F 56 °F (1979)
Min Temperature -5 °F 12 °F -12 °F (1972)
Degree Days  
Heating Degree Days 59    
Moisture  
Dew Point -4 °F    
Average Humidity 72    
Maximum Humidity 92    
Minimum Humidity 61    
Precipitation  
Precipitation 0.00 in - - ()
Sea Level Pressure  
Sea Level Pressure 30.14 in    
Wind  
Wind Speed 10 mph (WSW)    
Max Wind Speed 20 mph    
Max Gust Speed 26 mph    
Visibility 10 miles    
Events      
Averages and records for this station are not official NWS values.
T = Trace of Precipitation, MM = Missing Value Source: NWS Daily Summary

Daily Weather History Graph

Daily Weather History Graph

Search for Another Location

Airport or City:

Trip Planner

Search our weather history database for the weather conditions in past years. The results will help you decide how hot, cold, wet, or windy it might be!

Date:

Astronomy

Dec. 09, 2013 Rise Set
Actual Time 7:43 AM CST 4:50 PM CST
Civil Twilight 7:11 AM CST 5:22 PM CST
Nautical Twilight 6:36 AM CST 5:58 PM CST
Astronomical Twilight 6:01 AM CST 6:32 PM CST
Moon 12:29 PM CST (12/9) No Moon Set
Length of Visible Light 10h 11m
Length of Day
9h 06m
Waxing Crescent, 51% of the Moon is Illuminated
Dec 9
Waxing Crescent
Dec 17
Full
Dec 25
Last Quarter
Jan 1
New
Jan 7
First Quarter

Hourly Weather History & Observations

Time (CST) Temp. Windchill Dew Point Humidity Pressure Visibility Wind Dir Wind Speed Gust Speed Precip Events Conditions
12:15 AM 3.2 °F -11.3 °F 1.4 °F 92% 30.13 in 10.0 mi West 9.2 mph - N/A   Mostly Cloudy
12:35 AM 3.2 °F -12.2 °F -0.4 °F 85% 30.13 in 10.0 mi WNW 10.4 mph - N/A   Unknown
1:15 AM 1.4 °F -15.3 °F -2.2 °F 85% 30.12 in 10.0 mi WNW 11.5 mph - N/A   Mostly Cloudy
1:35 AM 1.4 °F -13.5 °F -4.0 °F 78% 30.13 in 10.0 mi West 9.2 mph - N/A   Unknown
1:55 AM -0.4 °F -14.7 °F -4.0 °F 85% 30.13 in 10.0 mi WNW 8.1 mph - N/A   Unknown
2:15 AM -0.4 °F -14.7 °F -4.0 °F 85% 30.14 in 10.0 mi West 8.1 mph - N/A   Mostly Cloudy
2:35 AM -0.4 °F -13.4 °F -5.8 °F 78% 30.14 in 10.0 mi WNW 6.9 mph - N/A   Mostly Cloudy
2:55 AM -0.4 °F -14.7 °F -7.6 °F 72% 30.15 in 10.0 mi WNW 8.1 mph - N/A   Scattered Clouds
3:15 AM -2.2 °F -18.0 °F -7.6 °F 78% 30.15 in 10.0 mi NW 9.2 mph - N/A   Clear
3:35 AM -2.2 °F -18.0 °F -7.6 °F 78% 30.15 in 10.0 mi WNW 9.2 mph - N/A   Clear
3:55 AM -2.2 °F -18.0 °F -9.4 °F 71% 30.15 in 10.0 mi WNW 9.2 mph - N/A   Clear
4:35 AM -4.0 °F -20.2 °F -9.4 °F 78% 30.16 in 10.0 mi WNW 9.2 mph - N/A   Clear
4:55 AM -2.2 °F -16.8 °F -9.4 °F 71% 30.17 in 10.0 mi WNW 8.1 mph - N/A   Clear
5:15 AM -4.0 °F -17.8 °F -11.2 °F 71% 30.18 in 10.0 mi WNW 6.9 mph - N/A   Clear
5:35 AM -4.0 °F -17.8 °F -11.2 °F 71% 30.19 in 10.0 mi WNW 6.9 mph - N/A   Clear
5:55 AM -4.0 °F -14.6 °F -11.2 °F 71% 30.20 in 10.0 mi WNW 4.6 mph - N/A   Clear
6:15 AM -4.0 °F -14.6 °F -11.2 °F 71% 30.21 in 10.0 mi West 4.6 mph - N/A   Clear
6:35 AM -5.8 °F - -11.2 °F 77% 30.21 in 10.0 mi Calm Calm - N/A   Clear
6:55 AM -5.8 °F -18.4 °F -11.2 °F 77% 30.22 in 10.0 mi Variable 5.8 mph - N/A   Clear
7:15 AM -5.8 °F -18.4 °F -11.2 °F 77% 30.22 in 10.0 mi Variable 5.8 mph - N/A   Clear
7:35 AM -5.8 °F -19.9 °F -11.2 °F 77% 30.24 in 10.0 mi West 6.9 mph - N/A   Clear
7:55 AM -5.8 °F -18.4 °F -11.2 °F 77% 30.24 in 10.0 mi West 5.8 mph - N/A   Clear
8:15 AM -4.0 °F -17.8 °F -11.2 °F 71% 30.26 in 10.0 mi Variable 6.9 mph 12.7 mph N/A   Clear
8:35 AM -4.0 °F -16.3 °F -11.2 °F 71% 30.26 in 10.0 mi West 5.8 mph 11.5 mph N/A   Clear
8:55 AM -4.0 °F -17.8 °F -9.4 °F 78% 30.26 in 10.0 mi West 6.9 mph - N/A   Clear
9:15 AM -2.2 °F -15.6 °F -9.4 °F 71% 30.26 in 10.0 mi Variable 6.9 mph - N/A   Clear
9:35 AM -2.2 °F -14.2 °F -9.4 °F 71% 30.25 in 10.0 mi WNW 5.8 mph 12.7 mph N/A   Clear
9:55 AM -0.4 °F -17.6 °F -9.4 °F 66% 30.26 in 10.0 mi WNW 11.5 mph - N/A   Clear
10:15 AM -0.4 °F -17.6 °F -7.6 °F 72% 30.26 in 10.0 mi WNW 11.5 mph 17.3 mph N/A   Clear
10:35 AM -0.4 °F -18.4 °F -7.6 °F 72% 30.26 in 10.0 mi WNW 12.7 mph 20.7 mph N/A   Clear
10:55 AM 1.4 °F -16.1 °F -7.6 °F 66% 30.26 in 10.0 mi WNW 12.7 mph - N/A   Clear
11:15 AM 1.4 °F -15.3 °F -5.8 °F 72% 30.25 in 10.0 mi WNW 11.5 mph - N/A   Clear
11:35 AM 1.4 °F -16.1 °F -7.6 °F 66% 30.24 in 10.0 mi West 12.7 mph 18.4 mph N/A   Clear
11:55 AM 1.4 °F -13.5 °F -7.6 °F 66% 30.24 in 10.0 mi West 9.2 mph 15.0 mph N/A   Clear
12:15 PM 3.2 °F -12.2 °F -5.8 °F 66% 30.24 in 10.0 mi West 10.4 mph - N/A   Clear
12:35 PM 3.2 °F -13.9 °F -5.8 °F 66% 30.23 in 10.0 mi West 12.7 mph - N/A   Clear
12:55 PM 3.2 °F -11.3 °F -5.8 °F 66% 30.22 in 10.0 mi West 9.2 mph - N/A   Clear
1:15 PM 5.0 °F -6.9 °F -5.8 °F 61% 30.22 in 10.0 mi West 6.9 mph 13.8 mph N/A   Clear
1:35 PM 5.0 °F -8.1 °F -4.0 °F 66% 30.21 in 10.0 mi WSW 8.1 mph 13.8 mph N/A   Clear
1:55 PM 6.8 °F -5.9 °F -4.0 °F 61% 30.20 in 10.0 mi West 8.1 mph - N/A   Clear
2:15 PM 6.8 °F -5.9 °F -4.0 °F 61% 30.19 in 10.0 mi WSW 8.1 mph - N/A   Clear
2:35 PM 6.8 °F -4.8 °F -4.0 °F 61% 30.18 in 10.0 mi SW 6.9 mph - N/A   Clear
2:55 PM 8.6 °F -6.3 °F -2.2 °F 62% 30.16 in - SW 11.5 mph - N/A   Clear
3:15 PM 8.6 °F -6.3 °F -2.2 °F 62% 30.15 in 10.0 mi SSW 11.5 mph - N/A   Clear
3:35 PM 6.8 °F -10.0 °F -2.2 °F 67% 30.15 in 10.0 mi SSW 13.8 mph - N/A   Clear
3:55 PM 6.8 °F -4.8 °F -4.0 °F 61% 30.15 in 10.0 mi SSW 6.9 mph 12.7 mph N/A   Clear
4:15 PM 6.8 °F -6.9 °F -2.2 °F 67% 30.13 in 10.0 mi SSW 9.2 mph - N/A   Clear
4:35 PM 6.8 °F -5.9 °F -2.2 °F 67% 30.13 in 10.0 mi SSW 8.1 mph - N/A   Clear
4:55 PM 5.0 °F -6.9 °F -2.2 °F 72% 30.13 in 10.0 mi South 6.9 mph - N/A   Clear
5:15 PM 5.0 °F -10.0 °F -4.0 °F 66% 30.13 in 10.0 mi South 10.4 mph - N/A   Clear
5:35 PM 5.0 °F -10.8 °F -4.0 °F 66% 30.12 in 10.0 mi South 11.5 mph - N/A   Clear
5:55 PM 5.0 °F -12.3 °F -2.2 °F 72% 30.11 in 10.0 mi South 13.8 mph - N/A   Clear
6:15 PM 5.0 °F -13.0 °F -2.2 °F 72% 30.09 in 10.0 mi South 15.0 mph - N/A   Clear
6:35 PM 5.0 °F -11.6 °F -2.2 °F 72% 30.08 in 10.0 mi South 12.7 mph - N/A   Clear
6:55 PM 5.0 °F -13.0 °F -2.2 °F 72% 30.05 in 10.0 mi South 15.0 mph 21.9 mph N/A   Clear
7:15 PM 5.0 °F -14.2 °F -2.2 °F 72% 30.04 in 10.0 mi South 17.3 mph 23.0 mph N/A   Clear
7:35 PM 5.0 °F -13.6 °F -0.4 °F 78% 30.03 in 10.0 mi South 16.1 mph 24.2 mph N/A   Clear
7:55 PM 6.8 °F -12.9 °F -0.4 °F 72% 30.02 in 10.0 mi South 19.6 mph - N/A   Partly Cloudy
8:15 PM 6.8 °F -11.8 °F -0.4 °F 72% 30.01 in 10.0 mi South 17.3 mph 24.2 mph N/A   Unknown
8:35 PM 6.8 °F -11.8 °F 1.4 °F 79% 30.00 in 10.0 mi South 17.3 mph 23.0 mph N/A   Unknown
8:55 PM 6.8 °F -11.8 °F 1.4 °F 79% 29.99 in 10.0 mi South 17.3 mph 23.0 mph N/A   Mostly Cloudy
9:15 PM 8.6 °F -9.5 °F 1.4 °F 73% 29.97 in 10.0 mi South 17.3 mph - N/A   Mostly Cloudy
9:35 PM 8.6 °F -8.9 °F 1.4 °F 73% 29.96 in 10.0 mi South 16.1 mph 21.9 mph N/A   Scattered Clouds
9:55 PM 10.4 °F -7.2 °F 3.2 °F 73% 29.94 in 10.0 mi SSW 17.3 mph - N/A   Mostly Cloudy
10:15 PM 12.2 °F -5.3 °F 5.0 °F 73% 29.94 in 10.0 mi SSW 18.4 mph 26.5 mph N/A   Mostly Cloudy
10:35 PM 12.2 °F -5.3 °F 5.0 °F 73% 29.93 in 10.0 mi SSW 18.4 mph - N/A   Mostly Cloudy
10:55 PM 14.0 °F -2.5 °F 6.8 °F 73% 29.93 in 10.0 mi SSW 17.3 mph 24.2 mph N/A   Overcast
11:15 PM 15.8 °F 1.4 °F 8.6 °F 73% 29.92 in 10.0 mi SSW 13.8 mph 19.6 mph N/A   Overcast
11:35 PM 17.6 °F 1.7 °F 8.6 °F 68% 29.91 in 10.0 mi SSW 18.4 mph - N/A   Overcast
11:55 PM 15.8 °F 0.9 °F 8.6 °F 73% 29.91 in 10.0 mi SSW 15.0 mph - N/A   Mostly Cloudy